Regional Weather Roundup
Issued by NWS

Home | Current Version | Previous Version | Text Only | Print | Product List | Glossary On
Versions: 1 2 3 4 5 6 7 8 9 10 11 12 13 14 15 16 17 18 19 20 21 22 23 24 25 26 27 28 29 30 31 32 33 34 35 36 37 38 39 40 41 42 43 44 45 46 47 48 49 50
000
ASCA42 TJSJ 261511
RWRPR
PUERTO RICO/U.S. VIRGIN ISLANDS HOURLY WEATHER ROUNDUP
NATIONAL WEATHER SERVICE SAN JUAN PR
1100 AM AST SAT JUL 26 2014

PRZ001-004-261600-
PUERTO RICO

CITY           SKY/WX    TMP DP  RH WIND       PRES   REMARKS
SAN JUAN LMM   MOSUNNY   90  73  58 E16       30.05F HX  98
AGUADILLA      MOSUNNY   84  75  74 E17G24    30.07S HX  92
CEIBA          MOSUNNY   88  73  62 E12G20    30.09S HX  96
$$

PRZ006-007-261600-
U.S. VIRGIN ISLANDS

CITY           SKY/WX    TMP DP  RH WIND       PRES   REMARKS
CHARLOTTE AMA  MOSUNNY   88  73  62 SE17      30.05S HX  96
CHRISTIANSTED  MOSUNNY   90  73  58 E21G26    30.05  HX  98
$$

HOURLY WEATHER ROUNDUP FOR THE NEWS MEDIA

CITY           SKY/WX    TMP DP  RH WIND       PRES   REMARKS
MIAMI          MOSUNNY   87  78  74 CALM      30.11S HX 100
ORLANDO        MOSUNNY   87  76  69 W8        30.11F HX  97
NEW YORK       CLOUDY    76  59  55 SW9       30.01S
NEWARK         LGT RAIN  76  61  59 SW14      30.00R
CHICAGO        CLOUDY    74  62  66 CALM      29.83F
HARTFORD       SUNNY     79  64  60 SW12      29.98F
BOSTON         PTSUNNY   79  62  56 SW14      29.95F
DALLAS         SUNNY     88  69  53 SW12      30.01S HX  92
PHILADELPHIA   CLOUDY    75  66  73 CALM      30.01F


USA.gov is the U.S. government's official web portal to all federal, state and local government web resources and services.